|
NORAD ID: 24803 Int'l Code: 1997-022D
Perigee: 1,995.1 km
Apogee: 37,745.5 km
Inclination: 67.1 °
Period: 705.1 minutes
Semi major axis: 26241 km
Launch date: May 14, 1997
Source: Commonwealth of Independent States (former USSR) (CIS)
Note: This is a ROCKET BODY
Two Line Element Set (TLE):
1 24803U 97022D 13141.20007109 .00000374 00000-0 00000+0 0 1924
2 24803 067.0524 358.7813 6811869 190.5638 354.4438 02.04232720119496
Source:
NASA's NSSDC Master Catalog entry for SL-6 R/B(2)
|